User: anonymous   Login
Location: Unspecified
(0.0000°N, 0.0000°E)
Time: 10:18:37
(UTC+00:00)
Language:

AIST 2D - Orbit

View from above orbital plane
View from above orbital plane
View from above satellite
View from above satellite

Ground track
Ground track

The orbit data is extracted from the following two-line orbital elements,

1 41465U 16026B   17294.83093068  .00002281  00000-0  76518-4 0  9999
2 41465  97.2372 194.9255 0012998 122.4243 310.3127 15.31824700 82844
Epoch (UTC): 21 October 2017 19:56:32
Eccentricity: 0.0012998
inclination: 97.2372°
perigee height: 461 km
apogee height: 479 km
right ascension of ascending node: 194.9255°
argument of perigee: 122.4243°
revolutions per day: 15.31824700
mean anomaly at epoch: 310.3127°
orbit number at epoch: 8284

The dashed part of the orbit path shows where the satellite is in the earth's shadow,  

DLR